Погода в Рубцовске

Хотите узнать прогноз погоды в Рубцовске? Тогда Вам сюда: Погода в Рубцовске

Поиск расширенной информации на нашем сайте:

Полезная информация:

Новости сайта



14.11.2019
Обновлён Долгосрочный прогноз погоды по России и другим странам хСССР на ноябрь-декабрь 2019 года.
Опубликованы прогностические карты: Предварительный прогноз на декабрь 2019 года, Предварительный прогноз на январь 2020 года, Предварительная схема синоптических процессов на декабрь 2019 г..

11.11.2019
Обновлены Долгосрочный прогноз погоды по России и другим странам хСССР на ноябрь-декабрь 2019 года и Предварительный прогноз на зиму 2019/2020 годов

04.11.2019
Опубликован Долгосрочный прогноз погоды по России и другим странам хСССР на ноябрь 2019 года
Сравнение прогнозируемой аномалии приземной температуры воздуха на ноябрь 2019 года по разным моделям
Предварительный прогноз на зиму 2019/2020 года




Погода в Рубцовске - сегодня

Время (UTC), дата Ветер
(°,м/с) 
Видим.   Явления Облачность Т
(°С)
Тd
(°С)
f(%) Тe
(°С)
Pmin
(гПа)
dP
(гПа)
Po
(мм)
O2
(г/м3)
Тmin Tmax R s Состояние
почвы
00 20.11.19 260 (З) 20000 м  {снег}  ясно 
-26 -29.1 75 -31  1028.4  1.6  748  335  -26    равномерный
сухой снег
100% 
03 20.11.19 210 (ЮЗ) 20000 м    ясно 
-27.2 -30.3 75 -31  1031.1  2.5  750  338           
06 20.11.19 250 (З) 20000 м    ясно 
-25.2 -29.1 70 -31  1033.2  2.2  752  336           
09 20.11.19 240 (ЮЗ) 20000 м    6/0 верхняя 
[Ci fib]
-23.3 -28.1 65 -29  1033.7  0.8  752  333           
12 20.11.19 210 (ЮЗ) 20000 м    3/0 верхняя 
[Ci fib]
-25.3 -29.3 69 -29  1035.8  1.8  754  337    -23.3       
15 20.11.19 220 (ЮЗ) 20000 м    10/10 600 м 
[Sc]
-26.4 -29.6 74 -30  1037.7  1.6  755  339           
18 20.11.19 190 (Ю) 20000 м    ясно 
-27.8 -31 74 -31  1038.1  0.2  755  341           
21 20.11.19 210 (ЮЗ) 20000 м    10/10 600 м 
[Sc]
-27.2 -30.3 75 -31  1038.8  0.8  756  340           
00 21.11.19 190 (Ю) 20000 м    10/0 верхняя 
[Ci fib]
-28 -31.2 74 -35  1039.5  0.6  756  341  -28      равномерный
сухой снег
100% 
03 21.11.19 200 (Ю) 20000 м  в посл. час снег  10/10 600 м 
[Sc]
-28.4 -31.5 75 -32  1041.4  1.9  758  343  -28.9         
06 21.11.19 200 (Ю) 20000 м  {снег}  3/0 верхняя 
[Cc]
-24.2 -28.1 70 -29  1041.5  0.4  758  337           
09 21.11.19 190 (Ю) 20000 м  позёмок  10/0 верхняя 
[Cc]
-23.1 -28 64 -31  1041.4  0.1  758  335           
12 21.11.19 190 (Ю) 6{10}  20000 м  позёмок  6/0 верхняя 
[Ci sp]
-25.1 -29 70 -33  1042.3  0.6  758  338    -22.7  0.2     
15 21.11.19 180 (Ю) 6{10}  20000 м  слаб. снег  10/10 600 м 
[Sc]
-24.5 -28.5 69 -33  1041.5  -0.7  758  337           
18 21.11.19 180 (Ю) 20000 м  слаб. снег  10/10 600 м 
[Sc]
-24.3 -28.2 70 -32  1040.8  -0.5  758  337           
21 21.11.19 180 (Ю) 6{10}  20000 м  позёмок{снег}  10/10 600 м 
[Sc]
-23.5 -28.3 65 -31  1039.2  -1.5  756  335           
00 22.11.19 190 (Ю) 7-11{11}  20000 м  позёмок{снег}  10/0 верхняя 
[Ci sp]
-24.1 -28.9 64 -33  1038.6  -0.7  756  336  -25.1    0.0  равномерный
сухой снег
100% 
03 22.11.19 190 (Ю) 6{11}  20000 м  позёмок  10/0 средняя 
[Ac und]
-23.1 -28 64 -31  1039.1  0.6  756  335           
06 22.11.19 190 (Ю) 5{10}  20000 м  позёмок{снег}  10/0 средняя, верхняя 
[Ac trans|Ci fib]
-19.3 -24.2 65 -26  1039.3  0.8  757  330           
09 22.11.19 180 (Ю) 6{10}  20000 м  позёмок  10/0 средняя 
[Ac und]
-17.6 -22.6 65 -24  1040.1  0.8  758  328           
12 22.11.19 180 (Ю) 4{10}  20000 м  позёмок  10/0 средняя 
[Ac und]
-18.8 -23.7 65 -24  1042.1  1.8  759  330    -17  0.2     
15 22.11.19 180 (Ю) 20000 м    6/0 верхняя 
[Ci fib]
-19.7 -24.6 65 -25  1044.1  1.8  760  332           
18 22.11.19 180 (Ю) 20000 м    10/0 средняя, верхняя 
[Ac trans|Ci fib]
-19.1 -24 65 -24  1044.9  761  331           
21 22.11.19 180 (Ю) 20000 м    ясно 
-19.4 -24.3 65 -24  1045.4  0.5  761  332           
00 23.11.19 170 (Ю) 20000 м  позёмок  ясно 
-18.4 -23.4 65 -25  1045  -0.3  761  331  -20.3      равномерный
сухой снег
100% 
Время (UTC), дата Ветер
(°,м/с) 
Видим.   Явления Облачность Т
(°С)
Тd
(°С)
f(%) Тe
(°С)
Pmin
(гПа)
dP
(гПа)
Po
(мм)
O2
(г/м3)
Тmin Tmax R s Состояние
почвы

Для получения пояснительной информации подведите курсор к названию столбца.

ПОГОДА в Рубцовске - архив

Всё, что Вы хотите узнать о погоде в Рубцовске - удобно и подробно!

Выберите нужную дату (начиная с 1 января 2019* года) и нажмите кнопку "Найти".
Будут отображены архивные сводки погоды по пункту Рубцовск, начиная с указанной даты.


Отображать данные в формате CSV (для использования в таблицах Excel)


Внимание! Наш архив погоды предназначен исключительно для личного некоммерческого использования в познавательных целях. Если Вам необходимы официальные справки о состоянии погоды (для производственных, юридических, коммерческих и т.п. целей), обращайтесь в органы Росгидромета.

*Примечание: данная дата относится к архиву по метеостанциям СССР (Россия, СНГ, Балтия).
Архив по метеостанциям Зарубежной Европы и Азии (кроме Китая) хранится 10 дней, по другим регионам земного шара (Китай, Африка, Америка, Австралия, Океания) - 1 день.

Рубцовск - район местоположения метеостанции


Название, широта, долгота, высота метеостанции:
Рубцовск 51.5°ш. 81.2°д. 219 м над ур. моря [Российская Федерация]

Дополнительная информация

В oтличие oт бoльшинства пoгoдных сайтoв мы публикуем пoдрoбную метеoинфoрмацию в детальнoм прoфессиoнальнoм фoрмате.

Характеристики температуры и влажнoсти вoздуха измеряются на высoте 2 м в тени вдали oт зданий и деревьев.
Скoрoсть ветра измеряется на высoте 10 м (на урoвне рoста челoвека скoрoсть ветра ниже в 1.5-2 раза). Если метеoстанция нахoдится в гoрoде или в лесу, тo скoрoсть ветра занижена на 2-4 м/с пo сравнению с oткрытым местoм. Скoрoсть ветра над акватoриями крупных рек и oзёр, а также на вершинах хoлмoв на 2-5 м/с выше, чем в oбычных услoвиях.
Атмoсфернoе давление в разных тoчках местнoсти мoжет значительнo oтличаться oт давления на метеoстанции, в зависимoсти oт услoвий рельефа (при пoдъёме на 10 м давление пoнижается примернo на 1 мм рт.ст.).